DAL1697 KATL-KFLL

Flight info

Callsign DAL1697
Flight time 1h 35m
Altitude 41000
Route SMLTZ3 WALET ZPLEN TEEKY4
Aircraft A359/H-SDE2E3GHIJ3J4J5LM1ORWXY/LB1D1

Departure

Time 2026-05-03 21:32
Airport Hartsfield Jackson Atlanta International Airport (KATL)

Arrival

Time 2026-05-03 23:07
Airport Fort Lauderdale Hollywood International Airport (KFLL)
Time Latitude Longitude Altitude Speed Heading
2026-05-03 21:12 33.63874 -84.41902 1013 ft 0 kts 289°
2026-05-03 21:20 33.63873 -84.41900 1013 ft 2 kts 289°
2026-05-03 21:20 33.63868 -84.41882 1013 ft 2 kts 292°
2026-05-03 21:21 33.63861 -84.41864 1013 ft 2 kts 297°
2026-05-03 21:21 33.63855 -84.41846 1013 ft 2 kts 275°
2026-05-03 21:21 33.63858 -84.41827 1013 ft 2 kts 222°
2026-05-03 21:21 33.63872 -84.41817 1013 ft 2 kts 193°
2026-05-03 21:22 33.63887 -84.41813 1013 ft 1 kts 199°
2026-05-03 21:22 33.63889 -84.41812 1013 ft 0 kts 200°
2026-05-03 21:23 33.63888 -84.41812 1013 ft 0 kts 200°
2026-05-03 21:24 33.63881 -84.41815 1013 ft 5 kts 199°
2026-05-03 21:24 33.63823 -84.41827 1013 ft 11 kts 179°
2026-05-03 21:24 33.63789 -84.41826 1013 ft 3 kts 179°
2026-05-03 21:24 33.63725 -84.41825 1013 ft 15 kts 179°
2026-05-03 21:25 33.63647 -84.41785 1013 ft 14 kts 128°
2026-05-03 21:25 33.63653 -84.41653 1012 ft 20 kts 80°
2026-05-03 21:25 33.63655 -84.41560 1012 ft 15 kts 90°
2026-05-03 21:25 33.63655 -84.41386 1012 ft 26 kts 90°
2026-05-03 21:26 33.63655 -84.41196 1012 ft 15 kts 90°
2026-05-03 21:26 33.63656 -84.41113 1012 ft 15 kts 90°
2026-05-03 21:26 33.63656 -84.40994 1012 ft 14 kts 90°
2026-05-03 21:26 33.63656 -84.40895 1013 ft 12 kts 90°
2026-05-03 21:27 33.63655 -84.40828 1013 ft 4 kts 91°
2026-05-03 21:27 33.63655 -84.40822 1013 ft 0 kts 91°
2026-05-03 21:27 33.63655 -84.40806 1013 ft 0 kts 92°
2026-05-03 21:27 33.63653 -84.40796 1013 ft 4 kts 102°
2026-05-03 21:28 33.63632 -84.40758 1013 ft 5 kts 142°
2026-05-03 21:28 33.63584 -84.40743 1013 ft 7 kts 180°
2026-05-03 21:28 33.63581 -84.40742 1013 ft 0 kts 179°
2026-05-03 21:29 33.63563 -84.40743 1013 ft 10 kts 181°
2026-05-03 21:29 33.63501 -84.40743 1013 ft 7 kts 180°
2026-05-03 21:30 33.63476 -84.40774 1013 ft 6 kts 250°
2026-05-03 21:30 33.63473 -84.40803 1013 ft 0 kts 269°
2026-05-03 21:31 33.63470 -84.40974 1013 ft 56 kts 269°
2026-05-03 21:31 33.63471 -84.41731 1012 ft 123 kts 270°
2026-05-03 21:32 33.63469 -84.42986 1120 ft 169 kts 269°
2026-05-03 21:32 33.63445 -84.44446 1756 ft 181 kts 269°
2026-05-03 21:32 33.63407 -84.46014 2428 ft 195 kts 269°
2026-05-03 21:32 33.63346 -84.47669 3141 ft 202 kts 268°
2026-05-03 21:33 33.63354 -84.49364 3806 ft 207 kts 273°
2026-05-03 21:33 33.63392 -84.51116 4471 ft 211 kts 272°
2026-05-03 21:33 33.63419 -84.52927 5009 ft 228 kts 272°
2026-05-03 21:33 33.63437 -84.54937 5421 ft 250 kts 271°
2026-05-03 21:34 33.63446 -84.57053 6236 ft 256 kts 272°
2026-05-03 21:34 33.63451 -84.59214 7097 ft 261 kts 272°
2026-05-03 21:34 33.63454 -84.61405 8042 ft 264 kts 271°
2026-05-03 21:34 33.63361 -84.63629 8982 ft 271 kts 262°
2026-05-03 21:35 33.62671 -84.65748 9934 ft 279 kts 238°
2026-05-03 21:35 33.61247 -84.67399 10599 ft 298 kts 217°
2026-05-03 21:35 33.59387 -84.68721 11002 ft 323 kts 210°
2026-05-03 21:35 33.57162 -84.69568 11364 ft 351 kts 188°
2026-05-03 21:36 33.54657 -84.69388 11812 ft 371 kts 173°
2026-05-03 21:36 33.52107 -84.68851 12452 ft 380 kts 172°
2026-05-03 21:36 33.49478 -84.68293 13204 ft 386 kts 172°
2026-05-03 21:36 33.46812 -84.67752 13773 ft 390 kts 173°
2026-05-03 21:37 33.44130 -84.67208 13978 ft 392 kts 171°
2026-05-03 21:37 33.41547 -84.66092 14003 ft 399 kts 152°
2026-05-03 21:37 33.39378 -84.64010 14110 ft 404 kts 136°
2026-05-03 21:37 33.37422 -84.61596 14814 ft 403 kts 135°
2026-05-03 21:38 33.35483 -84.59212 15895 ft 397 kts 136°
2026-05-03 21:38 33.33538 -84.56858 16792 ft 398 kts 137°
2026-05-03 21:38 33.31566 -84.54502 17567 ft 402 kts 137°
2026-05-03 21:38 33.29579 -84.52144 18324 ft 406 kts 137°
2026-05-03 21:39 33.27558 -84.49755 18987 ft 410 kts 138°
2026-05-03 21:39 33.25518 -84.47348 19665 ft 414 kts 138°
2026-05-03 21:39 33.23455 -84.44919 20349 ft 419 kts 138°
2026-05-03 21:39 33.21370 -84.42466 21074 ft 423 kts 138°
2026-05-03 21:40 33.19262 -84.39990 21784 ft 427 kts 138°
2026-05-03 21:40 33.17139 -84.37496 22489 ft 431 kts 138°
2026-05-03 21:40 33.14989 -84.34973 23183 ft 435 kts 138°
2026-05-03 21:40 33.12823 -84.32434 23844 ft 439 kts 138°
2026-05-03 21:41 33.10631 -84.29867 24395 ft 443 kts 139°
2026-05-03 21:41 33.08411 -84.27266 24924 ft 448 kts 139°
2026-05-03 21:41 33.06206 -84.24688 25451 ft 453 kts 139°
2026-05-03 21:41 33.03917 -84.22012 26002 ft 457 kts 140°
2026-05-03 21:42 33.01666 -84.19389 26555 ft 460 kts 141°
2026-05-03 21:42 32.99143 -84.17081 27071 ft 453 kts 156°
2026-05-03 21:42 32.96272 -84.15619 27638 ft 448 kts 167°
2026-05-03 21:42 32.93298 -84.14435 28192 ft 451 kts 168°
2026-05-03 21:43 32.90315 -84.13257 28751 ft 454 kts 168°
2026-05-03 21:43 32.87308 -84.12052 29305 ft 457 kts 168°
2026-05-03 21:43 32.84286 -84.10826 29834 ft 461 kts 168°
2026-05-03 21:43 32.81248 -84.09587 30315 ft 464 kts 168°
2026-05-03 21:44 32.78183 -84.08333 30730 ft 467 kts 168°
2026-05-03 21:44 32.75098 -84.07068 31196 ft 469 kts 168°
2026-05-03 21:44 32.72014 -84.05804 31620 ft 470 kts 169°
2026-05-03 21:44 32.68915 -84.04533 32053 ft 472 kts 169°
2026-05-03 21:45 32.65805 -84.03259 32444 ft 474 kts 169°
2026-05-03 21:45 32.62681 -84.01981 32828 ft 476 kts 169°
2026-05-03 21:45 32.59546 -84.00698 33210 ft 478 kts 169°
2026-05-03 21:45 32.56397 -83.99411 33579 ft 480 kts 169°
2026-05-03 21:46 32.53230 -83.98117 33938 ft 481 kts 169°
2026-05-03 21:46 32.50067 -83.96824 34388 ft 480 kts 170°
2026-05-03 21:46 32.46915 -83.95535 34752 ft 479 kts 170°
2026-05-03 21:46 32.43769 -83.94252 35142 ft 477 kts 170°
2026-05-03 21:47 32.40629 -83.92972 35508 ft 477 kts 171°
2026-05-03 21:47 32.37539 -83.91715 35821 ft 477 kts 171°
2026-05-03 21:47 32.34399 -83.90470 36128 ft 475 kts 173°
2026-05-03 21:47 32.31233 -83.89337 36290 ft 477 kts 173°
2026-05-03 21:48 32.28038 -83.88219 36421 ft 481 kts 173°
2026-05-03 21:48 32.24816 -83.87083 36541 ft 484 kts 173°
2026-05-03 21:48 32.18345 -83.84780 36687 ft 488 kts 173°
2026-05-03 21:49 32.15091 -83.83617 36799 ft 488 kts 173°
2026-05-03 21:49 32.11841 -83.82455 36886 ft 489 kts 173°
2026-05-03 21:49 32.08605 -83.81295 37316 ft 482 kts 173°
2026-05-03 21:49 32.05423 -83.80152 37889 ft 475 kts 174°
2026-05-03 21:50 32.02274 -83.79027 38308 ft 472 kts 174°
2026-05-03 21:50 31.99145 -83.77910 38847 ft 465 kts 174°
2026-05-03 21:50 31.96065 -83.76811 39248 ft 461 kts 174°
2026-05-03 21:50 31.92999 -83.75720 39612 ft 456 kts 174°
2026-05-03 21:51 31.89992 -83.74647 40082 ft 448 kts 175°
2026-05-03 21:51 31.87022 -83.73589 40505 ft 443 kts 175°
2026-05-03 21:51 31.84103 -83.72551 40933 ft 437 kts 175°
2026-05-03 21:51 31.81196 -83.71522 41112 ft 437 kts 175°
2026-05-03 21:52 31.75315 -83.69452 41129 ft 445 kts 175°
2026-05-03 21:52 31.69323 -83.67336 41128 ft 454 kts 175°
2026-05-03 21:53 31.63230 -83.65047 41090 ft 465 kts 173°
2026-05-03 21:53 31.57073 -83.62653 41131 ft 472 kts 173°
2026-05-03 21:54 31.50782 -83.60231 41130 ft 480 kts 173°
2026-05-03 21:54 31.44392 -83.57780 41129 ft 486 kts 173°
2026-05-03 21:55 31.37931 -83.55307 41130 ft 490 kts 173°
2026-05-03 21:55 31.31439 -83.52825 41112 ft 491 kts 173°
2026-05-03 21:56 31.24958 -83.50352 41127 ft 490 kts 173°
2026-05-03 21:56 31.18483 -83.47887 41126 ft 489 kts 173°
2026-05-03 21:57 31.12009 -83.45427 41124 ft 489 kts 173°
2026-05-03 21:57 31.05532 -83.42968 41100 ft 489 kts 174°
2026-05-03 21:58 30.99063 -83.40517 41115 ft 489 kts 174°
2026-05-03 21:58 30.92638 -83.38079 41122 ft 480 kts 174°
2026-05-03 21:59 30.86326 -83.35692 41121 ft 475 kts 174°
2026-05-03 21:59 30.80037 -83.33324 41119 ft 475 kts 174°
2026-05-03 22:00 30.73755 -83.30959 41120 ft 474 kts 174°
2026-05-03 22:00 30.67542 -83.28080 41123 ft 486 kts 167°
2026-05-03 22:01 30.61397 -83.24755 41126 ft 487 kts 167°
2026-05-03 22:01 30.55247 -83.21435 41134 ft 487 kts 167°
2026-05-03 22:02 30.49100 -83.18129 41133 ft 487 kts 167°
2026-05-03 22:02 30.42958 -83.14831 41133 ft 487 kts 168°
2026-05-03 22:03 30.36857 -83.11561 41135 ft 486 kts 168°
2026-05-03 22:03 30.30686 -83.08259 41128 ft 485 kts 168°
2026-05-03 22:04 30.24586 -83.04999 41131 ft 485 kts 168°
2026-05-03 22:04 30.18448 -83.01723 41111 ft 486 kts 168°
2026-05-03 22:05 30.12296 -82.98446 41124 ft 486 kts 168°
2026-05-03 22:05 30.06148 -82.95174 41115 ft 486 kts 168°
2026-05-03 22:06 30.00004 -82.91908 41118 ft 486 kts 168°
2026-05-03 22:06 29.93893 -82.88665 41113 ft 486 kts 168°
2026-05-03 22:07 29.87747 -82.85408 41106 ft 487 kts 168°
2026-05-03 22:07 29.81587 -82.82149 41105 ft 488 kts 168°
2026-05-03 22:08 29.75416 -82.78884 41100 ft 483 kts 168°
2026-05-03 22:08 29.72422 -82.77286 41081 ft 467 kts 169°
2026-05-03 22:08 29.69526 -82.75743 41092 ft 451 kts 169°
2026-05-03 22:09 29.66724 -82.74256 41090 ft 436 kts 170°
2026-05-03 22:09 29.63997 -82.72818 41096 ft 428 kts 171°
2026-05-03 22:10 29.55892 -82.68585 41094 ft 428 kts 171°
2026-05-03 22:10 29.50469 -82.65742 41092 ft 429 kts 171°
2026-05-03 22:11 29.45957 -82.63374 41095 ft 429 kts 171°
2026-05-03 22:11 29.40534 -82.60529 41092 ft 428 kts 171°
2026-05-03 22:12 29.35111 -82.57689 41084 ft 428 kts 171°
2026-05-03 22:12 29.29680 -82.54858 41092 ft 427 kts 172°
2026-05-03 22:12 29.26935 -82.53688 41096 ft 414 kts 179°
2026-05-03 22:13 29.24179 -82.52970 41089 ft 398 kts 187°
2026-05-03 22:13 29.21473 -82.52702 41090 ft 385 kts 194°
2026-05-03 22:13 29.18843 -82.52677 41090 ft 382 kts 195°
2026-05-03 22:14 29.13527 -82.52702 41082 ft 382 kts 195°
2026-05-03 22:14 29.08205 -82.52712 41083 ft 383 kts 194°
2026-05-03 22:15 29.02882 -82.52712 41047 ft 382 kts 194°
2026-05-03 22:15 28.97550 -82.52711 41074 ft 383 kts 194°
2026-05-03 22:16 28.92183 -82.52713 41059 ft 389 kts 194°
2026-05-03 22:16 28.86728 -82.52713 41194 ft 394 kts 194°
2026-05-03 22:16 28.83979 -82.52710 41320 ft 395 kts 194°
2026-05-03 22:17 28.81220 -82.52707 41469 ft 396 kts 194°
2026-05-03 22:17 28.78468 -82.52705 41588 ft 396 kts 194°
2026-05-03 22:17 28.75710 -82.52701 41625 ft 394 kts 194°
2026-05-03 22:17 28.72978 -82.52694 41088 ft 392 kts 194°
2026-05-03 22:18 28.70249 -82.52695 40482 ft 393 kts 194°
2026-05-03 22:18 28.67517 -82.52694 39974 ft 391 kts 193°
2026-05-03 22:18 28.64801 -82.52692 39491 ft 390 kts 193°
2026-05-03 22:18 28.62095 -82.52690 39016 ft 388 kts 193°
2026-05-03 22:19 28.59397 -82.52688 38497 ft 387 kts 193°
2026-05-03 22:19 28.56711 -82.52687 37848 ft 387 kts 193°
2026-05-03 22:19 28.54010 -82.52689 37140 ft 389 kts 193°
2026-05-03 22:19 28.51327 -82.52690 36481 ft 392 kts 193°
2026-05-03 22:20 28.48597 -82.52690 35823 ft 393 kts 192°
2026-05-03 22:20 28.45855 -82.52688 35285 ft 393 kts 192°
2026-05-03 22:20 28.43116 -82.52686 35095 ft 396 kts 192°
2026-05-03 22:21 28.37571 -82.52685 35074 ft 399 kts 192°
2026-05-03 22:21 28.32022 -82.52679 35072 ft 399 kts 192°
2026-05-03 22:22 28.26471 -82.52675 35072 ft 399 kts 192°
2026-05-03 22:22 28.20929 -82.52672 35070 ft 399 kts 192°
2026-05-03 22:23 28.15375 -82.52669 35042 ft 399 kts 192°
2026-05-03 22:23 28.09806 -82.52668 35058 ft 401 kts 192°
2026-05-03 22:24 28.04224 -82.52665 35055 ft 401 kts 192°
2026-05-03 22:24 27.98561 -82.52114 35055 ft 422 kts 180°
2026-05-03 22:25 27.92844 -82.50191 35053 ft 431 kts 175°
2026-05-03 22:25 27.87140 -82.48137 35044 ft 430 kts 175°
2026-05-03 22:26 27.81412 -82.46097 35043 ft 432 kts 175°
2026-05-03 22:26 27.75658 -82.44056 35050 ft 433 kts 175°
2026-05-03 22:27 27.69944 -82.42032 35050 ft 433 kts 175°
2026-05-03 22:27 27.64205 -82.40003 35053 ft 433 kts 175°
2026-05-03 22:28 27.58398 -82.37953 35064 ft 433 kts 175°
2026-05-03 22:28 27.52642 -82.35923 35066 ft 433 kts 175°
2026-05-03 22:29 27.46881 -82.33894 35054 ft 433 kts 175°
2026-05-03 22:29 27.41124 -82.31868 35057 ft 433 kts 175°
2026-05-03 22:30 27.35452 -82.29249 35056 ft 452 kts 164°
2026-05-03 22:30 27.29950 -82.25755 35051 ft 455 kts 163°
2026-05-03 22:31 27.24436 -82.22234 35026 ft 455 kts 163°
2026-05-03 22:31 27.18927 -82.18735 35052 ft 455 kts 163°
2026-05-03 22:32 27.13443 -82.15261 34865 ft 461 kts 163°
2026-05-03 22:32 27.10593 -82.13464 34512 ft 463 kts 162°
2026-05-03 22:32 27.07811 -82.11706 33617 ft 469 kts 162°
2026-05-03 22:32 27.04935 -82.09894 32604 ft 476 kts 161°
2026-05-03 22:33 27.02032 -82.08062 31761 ft 480 kts 160°
2026-05-03 22:33 26.99147 -82.06231 30832 ft 473 kts 159°
2026-05-03 22:33 26.96410 -82.04240 29995 ft 470 kts 150°
2026-05-03 22:33 26.93993 -82.01772 29203 ft 464 kts 141°
2026-05-03 22:34 26.91787 -81.99181 28487 ft 459 kts 141°
2026-05-03 22:34 26.89594 -81.96581 27862 ft 458 kts 141°
2026-05-03 22:34 26.87398 -81.93980 27593 ft 457 kts 141°
2026-05-03 22:34 26.85215 -81.91397 27478 ft 454 kts 141°
2026-05-03 22:35 26.83052 -81.88841 27317 ft 452 kts 141°
2026-05-03 22:35 26.80890 -81.86290 27141 ft 451 kts 141°
2026-05-03 22:35 26.78726 -81.83739 26805 ft 450 kts 141°
2026-05-03 22:35 26.76577 -81.81207 26298 ft 447 kts 141°
2026-05-03 22:36 26.74421 -81.78693 25746 ft 446 kts 141°
2026-05-03 22:36 26.72280 -81.76204 25226 ft 443 kts 141°
2026-05-03 22:36 26.70176 -81.73758 24740 ft 440 kts 141°
2026-05-03 22:36 26.68060 -81.71299 24266 ft 437 kts 141°
2026-05-03 22:37 26.65957 -81.68856 23795 ft 434 kts 141°
2026-05-03 22:37 26.63875 -81.66431 23261 ft 431 kts 141°
2026-05-03 22:37 26.61947 -81.63848 22678 ft 432 kts 134°
2026-05-03 22:37 26.60145 -81.61177 22322 ft 425 kts 133°
2026-05-03 22:38 26.58402 -81.58562 22081 ft 414 kts 134°
2026-05-03 22:38 26.56699 -81.56016 21867 ft 404 kts 134°
2026-05-03 22:38 26.55037 -81.53537 21663 ft 393 kts 134°
2026-05-03 22:38 26.53412 -81.51120 21388 ft 386 kts 134°
2026-05-03 22:39 26.51826 -81.48767 21036 ft 382 kts 134°
2026-05-03 22:39 26.50213 -81.46379 20626 ft 380 kts 134°
2026-05-03 22:39 26.48641 -81.44048 20057 ft 372 kts 134°
2026-05-03 22:39 26.47087 -81.41746 19265 ft 370 kts 134°
2026-05-03 22:40 26.45543 -81.39463 18489 ft 368 kts 133°
2026-05-03 22:40 26.44010 -81.37194 17796 ft 360 kts 133°
2026-05-03 22:40 26.42519 -81.34983 17290 ft 354 kts 133°
2026-05-03 22:40 26.41059 -81.32827 16874 ft 352 kts 133°
2026-05-03 22:41 26.39538 -81.30701 16464 ft 348 kts 136°
2026-05-03 22:41 26.37982 -81.28653 16046 ft 345 kts 136°
2026-05-03 22:41 26.36426 -81.26610 15680 ft 346 kts 136°
2026-05-03 22:41 26.34880 -81.24566 15301 ft 345 kts 136°
2026-05-03 22:42 26.33340 -81.22520 14866 ft 343 kts 135°
2026-05-03 22:42 26.31817 -81.20490 14456 ft 341 kts 135°
2026-05-03 22:42 26.30297 -81.18464 14072 ft 338 kts 135°
2026-05-03 22:42 26.28792 -81.16456 13649 ft 337 kts 135°
2026-05-03 22:43 26.27336 -81.14532 13291 ft 332 kts 135°
2026-05-03 22:43 26.26114 -81.12924 13089 ft 328 kts 135°
2026-05-03 22:43 26.24645 -81.10993 12832 ft 327 kts 135°
2026-05-03 22:43 26.23175 -81.09060 12426 ft 324 kts 135°
2026-05-03 22:44 26.21755 -81.07194 12041 ft 322 kts 135°
2026-05-03 22:44 26.20327 -81.05317 11665 ft 321 kts 135°
2026-05-03 22:44 26.18889 -81.03428 11313 ft 319 kts 134°
2026-05-03 22:44 26.17479 -81.01544 10975 ft 317 kts 131°
2026-05-03 22:45 26.16477 -80.99340 10614 ft 323 kts 107°
2026-05-03 22:45 26.16158 -80.96872 10242 ft 323 kts 95°
2026-05-03 22:45 26.16047 -80.94388 9873 ft 321 kts 93°
2026-05-03 22:45 26.15965 -80.91914 9458 ft 319 kts 93°
2026-05-03 22:46 26.15887 -80.89462 9052 ft 316 kts 93°
2026-05-03 22:46 26.15804 -80.87031 8652 ft 312 kts 93°
2026-05-03 22:46 26.15725 -80.84623 8254 ft 310 kts 93°
2026-05-03 22:46 26.15647 -80.82247 8042 ft 305 kts 93°
2026-05-03 22:47 26.15676 -80.79887 7998 ft 307 kts 82°
2026-05-03 22:47 26.16410 -80.77674 8017 ft 305 kts 56°
2026-05-03 22:47 26.17881 -80.76008 8024 ft 302 kts 31°
2026-05-03 22:47 26.19698 -80.74854 8015 ft 301 kts 24°
2026-05-03 22:48 26.21567 -80.73813 8009 ft 300 kts 23°
2026-05-03 22:48 26.23436 -80.72788 8009 ft 299 kts 23°
2026-05-03 22:48 26.25300 -80.71767 8009 ft 299 kts 23°
2026-05-03 22:48 26.27168 -80.70744 7998 ft 299 kts 23°
2026-05-03 22:49 26.29034 -80.69723 8007 ft 299 kts 23°
2026-05-03 22:49 26.30900 -80.68702 7998 ft 299 kts 23°
2026-05-03 22:49 26.32693 -80.67520 8003 ft 303 kts 38°
2026-05-03 22:49 26.33982 -80.65675 8021 ft 305 kts 64°
2026-05-03 22:50 26.34576 -80.63413 8002 ft 305 kts 80°
2026-05-03 22:50 26.34895 -80.61063 8016 ft 306 kts 83°
2026-05-03 22:50 26.35175 -80.58713 8014 ft 306 kts 83°
2026-05-03 22:50 26.35450 -80.56362 8001 ft 306 kts 83°
2026-05-03 22:51 26.35726 -80.54012 8018 ft 306 kts 83°
2026-05-03 22:51 26.35838 -80.51649 8013 ft 305 kts 91°
2026-05-03 22:51 26.35788 -80.49322 8011 ft 305 kts 92°
2026-05-03 22:51 26.35720 -80.47063 8009 ft 304 kts 93°
2026-05-03 22:52 26.35647 -80.44701 8007 ft 304 kts 93°
2026-05-03 22:52 26.35599 -80.43133 8001 ft 304 kts 93°
2026-05-03 22:52 26.35527 -80.40771 8004 ft 304 kts 92°
2026-05-03 22:52 26.35454 -80.38410 8004 ft 304 kts 93°
2026-05-03 22:53 26.35382 -80.36062 8012 ft 304 kts 93°
2026-05-03 22:53 26.35312 -80.33702 8012 ft 304 kts 92°
2026-05-03 22:53 26.35242 -80.31345 8012 ft 304 kts 92°
2026-05-03 22:53 26.35172 -80.28980 8018 ft 305 kts 92°
2026-05-03 22:54 26.35100 -80.26628 8017 ft 304 kts 92°
2026-05-03 22:54 26.35030 -80.24268 8010 ft 302 kts 92°
2026-05-03 22:54 26.34966 -80.21923 8003 ft 304 kts 92°
2026-05-03 22:54 26.34866 -80.19580 8000 ft 298 kts 97°
2026-05-03 22:55 26.34244 -80.17480 8015 ft 278 kts 124°
2026-05-03 22:55 26.32954 -80.16018 7997 ft 255 kts 154°
2026-05-03 22:55 26.31351 -80.15429 8015 ft 237 kts 177°
2026-05-03 22:55 26.29726 -80.15280 7829 ft 232 kts 182°
2026-05-03 22:56 26.28103 -80.15209 7467 ft 234 kts 182°
2026-05-03 22:56 26.26471 -80.15156 7132 ft 234 kts 182°
2026-05-03 22:56 26.24851 -80.15109 6829 ft 233 kts 182°
2026-05-03 22:56 26.23232 -80.15075 6520 ft 233 kts 183°
2026-05-03 22:57 26.21636 -80.15034 6209 ft 231 kts 183°
2026-05-03 22:57 26.20044 -80.14991 5924 ft 227 kts 185°
2026-05-03 22:57 26.18555 -80.15432 5545 ft 220 kts 215°
2026-05-03 22:57 26.17559 -80.16661 5194 ft 215 kts 247°
2026-05-03 22:58 26.17246 -80.18265 5019 ft 214 kts 265°
2026-05-03 22:58 26.17172 -80.19937 4993 ft 217 kts 267°
2026-05-03 22:58 26.17126 -80.21616 4990 ft 217 kts 268°
2026-05-03 22:58 26.17088 -80.23291 4992 ft 217 kts 268°
2026-05-03 22:59 26.17052 -80.24970 4994 ft 217 kts 268°
2026-05-03 22:59 26.17010 -80.26650 4991 ft 217 kts 268°
2026-05-03 22:59 26.16970 -80.28321 5000 ft 216 kts 268°
2026-05-03 22:59 26.16941 -80.29992 5007 ft 218 kts 268°
2026-05-03 23:00 26.16904 -80.31700 5000 ft 220 kts 267°
2026-05-03 23:00 26.16860 -80.33366 4988 ft 214 kts 267°
2026-05-03 23:00 26.16831 -80.35058 4997 ft 221 kts 270°
2026-05-03 23:00 26.16800 -80.36752 5005 ft 215 kts 268°
2026-05-03 23:01 26.16767 -80.38408 5011 ft 214 kts 268°
2026-05-03 23:01 26.16573 -80.40035 4917 ft 211 kts 250°
2026-05-03 23:01 26.15697 -80.41327 4489 ft 215 kts 218°
2026-05-03 23:01 26.14272 -80.41881 3996 ft 225 kts 185°
2026-05-03 23:02 26.12709 -80.41757 3650 ft 226 kts 173°
2026-05-03 23:02 26.11169 -80.41449 3270 ft 224 kts 167°
2026-05-03 23:02 26.09856 -80.40547 3040 ft 227 kts 133°
2026-05-03 23:02 26.09045 -80.39032 2993 ft 229 kts 115°
2026-05-03 23:03 26.08410 -80.37404 2993 ft 228 kts 113°
2026-05-03 23:03 26.07920 -80.35741 2990 ft 224 kts 100°
2026-05-03 23:03 26.07818 -80.34019 2979 ft 223 kts 89°
2026-05-03 23:03 26.07811 -80.32315 2740 ft 217 kts 91°
2026-05-03 23:04 26.07774 -80.30663 2462 ft 212 kts 90°
2026-05-03 23:04 26.07772 -80.29050 2176 ft 203 kts 89°
2026-05-03 23:04 26.07760 -80.27570 1918 ft 185 kts 90°
2026-05-03 23:04 26.07748 -80.26189 1682 ft 169 kts 89°
2026-05-03 23:05 26.07740 -80.24927 1466 ft 157 kts 88°
2026-05-03 23:05 26.07733 -80.23762 1266 ft 149 kts 87°
2026-05-03 23:05 26.07727 -80.22617 1078 ft 148 kts 87°
2026-05-03 23:05 26.07722 -80.21455 896 ft 149 kts 89°
2026-05-03 23:06 26.07714 -80.20302 682 ft 149 kts 87°
2026-05-03 23:06 26.07702 -80.19159 493 ft 150 kts 86°
2026-05-03 23:06 26.07697 -80.18010 289 ft 148 kts 85°
2026-05-03 23:06 26.07700 -80.16898 114 ft 144 kts 85°
2026-05-03 23:07 26.07694 -80.15791 28 ft 131 kts 91°
2026-05-03 23:07 26.07688 -80.15123 23 ft 41 kts 90°
2026-05-03 23:07 26.07685 -80.14835 30 ft 36 kts 90°
2026-05-03 23:07 26.07640 -80.14609 30 ft 26 kts 115°
2026-05-03 23:08 26.07597 -80.14528 32 ft 0 kts 122°
2026-05-03 23:10 26.07557 -80.14516 32 ft 14 kts 180°
2026-05-03 23:10 26.07544 -80.14521 32 ft 2 kts 214°
2026-05-03 23:10 26.07552 -80.14567 32 ft 15 kts 284°
2026-05-03 23:10 26.07560 -80.14711 31 ft 20 kts 270°
2026-05-03 23:11 26.07561 -80.14848 29 ft 18 kts 270°
2026-05-03 23:11 26.07562 -80.14960 26 ft 16 kts 270°
2026-05-03 23:11 26.07563 -80.15062 29 ft 15 kts 270°
2026-05-03 23:11 26.07563 -80.15138 28 ft 9 kts 270°
2026-05-03 23:12 26.07564 -80.15225 25 ft 13 kts 270°
2026-05-03 23:12 26.07542 -80.15303 25 ft 7 kts 210°
2026-05-03 23:12 26.07495 -80.15300 26 ft 9 kts 175°
2026-05-03 23:12 26.07423 -80.15300 26 ft 12 kts 180°
2026-05-03 23:13 26.07335 -80.15300 28 ft 13 kts 180°
2026-05-03 23:13 26.07237 -80.15301 28 ft 15 kts 180°
2026-05-03 23:13 26.07124 -80.15301 29 ft 18 kts 180°
2026-05-03 23:13 26.07063 -80.15301 29 ft 0 kts 180°
2026-05-03 23:14 26.07051 -80.15301 29 ft 7 kts 180°
2026-05-03 23:14 26.06984 -80.15301 29 ft 8 kts 180°
2026-05-03 23:14 26.06925 -80.15302 30 ft 10 kts 180°
2026-05-03 23:14 26.06869 -80.15302 31 ft 5 kts 181°
2026-05-03 23:15 26.06826 -80.15304 32 ft 7 kts 181°
2026-05-03 23:15 26.06779 -80.15291 33 ft 6 kts 143°
2026-05-03 23:15 26.06771 -80.15258 32 ft 6 kts 94°
2026-05-03 23:15 26.06769 -80.15191 31 ft 11 kts 91°
2026-05-03 23:16 26.06767 -80.15085 29 ft 16 kts 91°
2026-05-03 23:16 26.06766 -80.14950 29 ft 19 kts 90°
2026-05-03 23:16 26.06765 -80.14835 27 ft 13 kts 90°
2026-05-03 23:16 26.06765 -80.14710 27 ft 19 kts 89°
2026-05-03 23:17 26.06765 -80.14648 25 ft 3 kts 90°
2026-05-03 23:17 26.06790 -80.14582 26 ft 8 kts 25°
2026-05-03 23:17 26.06823 -80.14585 25 ft 3 kts 332°
2026-05-03 23:17 26.06855 -80.14621 27 ft 16 kts 317°
2026-05-03 23:18 26.06890 -80.14631 28 ft 5 kts 44°